Santa Maria, CA

3:07 PM PDT on August 23, 2017 (GMT -0700)
Santa Maria Public Airport / Captain G. Allan Hancock Field

Weather History for KSMX - January, 2014

Change the Weather History Date:

Thursday, January 9, 2014

  Actual Average Record
Temperature  
Mean Temperature 59 °F 51 °F  
Max Temperature 69 °F 63 °F 81 °F (1923)
Min Temperature 49 °F 39 °F 26 °F (1949)
Degree Days  
Heating Degree Days 6 14  
Month to date heating degree days 78 126  
Since 1 July heating degree days 822 1198  
Cooling Degree Days 0 0  
Month to date cooling degree days 0 0  
Year to date cooling degree days 0 0  
Growing Degree Days 5 (Base 50)    
Moisture  
Dew Point 43 °F    
Average Humidity 58    
Maximum Humidity 77    
Minimum Humidity 39    
Precipitation  
Precipitation 0.00 in 0.08 in 2.03 in (1907)
Month to date precipitation 0.00 0.75  
Year to date precipitation 0.00 0.75  
Since 1 July precipitation 0.50  
Sea Level Pressure  
Sea Level Pressure 30.14 in    
Wind  
Wind Speed 13 mph (NNW)    
Max Wind Speed 25 mph    
Max Gust Speed 30 mph    
Visibility 9 miles    
Events      
T = Trace of Precipitation, MM = Missing Value Source: NWS Daily Summary

Daily Weather History Graph

Daily Weather History Graph

Search for Another Location

Airport or City:

Trip Planner

Search our weather history database for the weather conditions in past years. The results will help you decide how hot, cold, wet, or windy it might be!

Date:

Astronomy

Jan. 09, 2014 Rise Set
Actual Time 7:10 AM PST 5:08 PM PST
Civil Twilight 6:42 AM PST 5:36 PM PST
Nautical Twilight 6:11 AM PST 6:07 PM PST
Astronomical Twilight 5:40 AM PST 6:37 PM PST
Moon 12:33 PM PST (1/9) 1:28 AM PST (1/9)
Length of Visible Light 10h 53m
Length of Day
9h 58m
Waxing Gibbous, 67% of the Moon is Illuminated
Jan 9
Waxing Gibbous
Jan 15
Full
Jan 23
Last Quarter
Jan 30
New
Feb 6
First Quarter

Hourly Weather History & Observations

Time (PST) Temp. Dew Point Humidity Pressure Visibility Wind Dir Wind Speed Gust Speed Precip Events Conditions
12:51 AM 55.9 °F 42.1 °F 60% 30.09 in 7.0 mi North 12.7 mph - N/A   Clear
1:51 AM 57.0 °F 42.1 °F 57% 30.13 in 8.0 mi North 18.4 mph - N/A   Clear
2:51 AM 57.0 °F 42.1 °F 57% 30.13 in 8.0 mi NNE 11.5 mph 20.7 mph N/A   Clear
3:51 AM 57.0 °F 42.1 °F 57% 30.11 in 8.0 mi NE 6.9 mph - N/A   Clear
4:51 AM 54.0 °F 41.0 °F 62% 30.11 in 7.0 mi NNW 13.8 mph - N/A   Clear
5:51 AM 51.1 °F 41.0 °F 68% 30.13 in 7.0 mi NW 12.7 mph - N/A   Clear
6:51 AM 50.0 °F 39.9 °F 68% 30.15 in 7.0 mi NW 11.5 mph - N/A   Mostly Cloudy
7:51 AM 50.0 °F 41.0 °F 71% 30.17 in 7.0 mi NW 10.4 mph - N/A   Mostly Cloudy
8:51 AM 53.1 °F 42.1 °F 66% 30.18 in 8.0 mi WNW 11.5 mph - N/A   Mostly Cloudy
9:51 AM 61.0 °F 42.1 °F 50% 30.18 in 9.0 mi NW 12.7 mph - N/A   Scattered Clouds
10:51 AM 64.0 °F 41.0 °F 43% 30.17 in 10.0 mi WNW 17.3 mph - N/A   Partly Cloudy
11:51 AM 68.0 °F 42.1 °F 39% 30.14 in 10.0 mi NW 17.3 mph - N/A   Partly Cloudy
12:51 PM 66.9 °F 45.0 °F 45% 30.08 in 10.0 mi WNW 21.9 mph - N/A   Scattered Clouds
1:51 PM 66.0 °F 46.9 °F 50% 30.07 in 10.0 mi West 19.6 mph 29.9 mph N/A   Clear
3:51 PM 62.1 °F 48.9 °F 62% 30.09 in 10.0 mi WNW 20.7 mph - N/A   Clear
4:51 PM 59.0 °F 48.9 °F 69% 30.12 in 9.0 mi WNW 19.6 mph - N/A   Clear
5:51 PM 55.0 °F 48.0 °F 77% 30.14 in 9.0 mi Calm Calm - N/A   Clear
6:51 PM 59.0 °F 43.0 °F 55% 30.14 in 10.0 mi NNE 9.2 mph - N/A   Clear
7:51 PM 59.0 °F 43.0 °F 55% 30.14 in 10.0 mi North 9.2 mph - N/A   Clear
8:51 PM 55.9 °F 43.0 °F 62% 30.17 in 10.0 mi NNW 4.6 mph - N/A   Clear
9:51 PM 57.0 °F 42.1 °F 57% 30.18 in 10.0 mi WNW 3.5 mph - N/A   Clear
10:51 PM 59.0 °F 41.0 °F 51% 30.19 in 10.0 mi NE 6.9 mph - N/A   Clear
11:51 PM 60.1 °F 39.9 °F 47% 30.17 in 10.0 mi NE 17.3 mph 24.2 mph N/A   Clear